sat.trackr.live / text

‹ back to catalog

STARLINK-3218

NORAD 49725 · 2021-115B

PAYLOAD ACTIVE UNKNOWN

§ Identity

Operator
Country
US
Launch date
2021-12-02
Launch site
AFETR
Launch vehicle
Mass (kg)
RCS (m²)

Purposes: comms

External: N2YO · Heavens-Above · Gunter

§ Orbital elements

Epoch: 2026-05-25T01:11:56.328000Z

Period
95.44 min
Inclination
53.2126°
Eccentricity
0.0001117
Mean motion
15.08838485 rev/d
Perigee alt
539.0 km
Apogee alt
540.5 km
Semi-major
6,917.9 km
B*
8.2939e-5
RAAN
166.4320°
Arg perigee
79.2536°
Mean anomaly
280.8582°
Rev number
24,706

§ Raw data

STARLINK-32181 49725U 21115B   26145.04995750  .00001032  00000+0  82939-4 0  99942 49725  53.2126 166.4320 0001117  79.2536 280.8582 15.08838485247064

JSON: /api/v1/satellites/49725 · /tle

For live sub-satellite position, see the globe view (requires WebGL).

§ Visibility from observer

Set your observer location to see the next 7 days of passes ≥ 10°. The values pass through the URL so the page stays shareable.

No JS? Fill the form by hand. The geolocation button needs JavaScript.